カタログに戻る

INDEX

運用中科学PO
NORAD 28810·PAYLOAD·🇯🇵 Japan

打ち上げ Aug 23, 2005 から Baikonur Cosmodrome

Loading…

次のパス (今後24時間)

TLE

最新Source: Space-Track

元期: Sep 13, 2026, 21:56 UTC

1 28810U 05031B   26256.91444010  .00004429  00000-0  26375-3 0  9997
2 28810  98.0253  25.2076 0019506 166.9921 193.1815 15.11626334144396

AllMySatでINDEXをリアルタイム追跡

Download on the App Store